Simultaneous Nadir Overpasses (SNOs) Predictions

Prediction of SNOs between AQUA and METOP-A Satellite Orbit:

Table of predicted SNOs for the next 14.0 days since TLE Epoch: 6/1/2012
Index Date (AQUA) Time (AQUA) AQUA Lat,Lon Date (METOP-A) Time (METOP-A) METOP-A Lat,Lon Distance(km) Time Diff (sec)
1 06/04/2012 08:06:05 73.56, 53.37 06/04/2012 08:04:54 73.51, 52.31 33.68 71
2 06/04/2012 08:55:36 -73.83,-139.58 06/04/2012 08:55:30 -73.81,-139.66 3.18 6
3 06/04/2012 09:45:04 73.92, 27.86 06/04/2012 09:46:07 73.89, 27.86 3.21 63
4 06/07/2012 03:40:23 73.77, 119.35 06/07/2012 03:39:10 73.76, 119.31 1.42 73
5 06/07/2012 04:29:50 -73.83, -73.14 06/07/2012 04:29:51 -73.82, -73.23 2.87 1
6 06/07/2012 05:19:19 73.92, 94.30 06/07/2012 05:20:29 73.89, 94.28 3.17 70
7 06/09/2012 23:14:38 73.79,-174.26 06/09/2012 23:13:32 73.76,-174.29 3.34 66
8 06/10/2012 00:04:05 -73.85, -6.75 06/10/2012 00:04:12 -73.87, -6.70 3.17 7
9 06/10/2012 00:53:36 74.04, 160.45 06/10/2012 00:54:48 74.04, 161.04 18.02 72
10 06/12/2012 18:48:52 73.78,-107.80 06/12/2012 18:47:53 73.80,-107.79 2.36 59
11 06/12/2012 19:38:19 -73.84, 59.72 06/12/2012 19:38:34 -73.87, 59.70 3.62 15
12 06/12/2012 20:27:56 74.35,-133.81 06/12/2012 20:29:04 74.32,-131.84 59.41 68
13 06/15/2012 14:23:05 73.79, -41.39 06/15/2012 14:22:14 73.78, -41.41 1.09 51
14 06/15/2012 15:12:32 -73.84, 126.13 06/15/2012 15:12:55 -73.86, 126.09 2.01 23




NCC Satellite Simultaneous Nadir Overpasses (SNOs) Prediction Service
